Retour au catalogue

CZ-6A DEB

ActifPO
NORAD 60831·DEBRIS·🇨🇳 China

Lancé Aug 6, 2024 depuis Taiyuan Satellite Launch Center

Loading…

Prochains Passages (prochaines 24 heures)

TLE

FraisSource: Space-Track

Époque: Sep 14, 2026, 11:08 UTC

1 60831U 24140HJ  26257.46407469  .00000465  00000-0  22038-3 0  9994
2 60831  88.9975 265.2211 0056975 257.6383 101.8425 14.17215466107928

Suivez CZ-6A DEB en temps réel avec AllMySat

Download on the App Store